軌道要素
Epoch 2003 June 10.0 TT = JDT 2452800.5
T 2003 June 28.42338 TT MPC
q 4.0078342 (2000.0) P Q
n 0.01049477 Peri. 121.18184 -0.31191401 +0.13753606
a 20.6611250 Node 87.48796 -0.78316751 -0.59742124
e 0.8060205 Incl. 70.22139 +0.53792034 -0.79004538
P 93.91
>From 1068 observations 2003 Mar. 23-Aug. 4, mean residual 0".60.
|